• In Czech Republic
  • List of Countries
  • For 7 days
  • Water Temperature
  • Satellite Maps
  • Weather Map
  • Weather Widgets
  • user-avatar
    Login

    Hourly Weather Campobasso

    Today, 17 January, Wednesday

    Time Temperature Precipitation Wind Pressure Humidity
    00:00 +5°C° 0.1 mm 6 mps 695 mmHg 88%
    01:00 +7°C° 0.1 mm 6 mps 695 mmHg 88%
    02:00 +6°C° 0.1 mm 7 mps 694 mmHg 88%
    03:00 +6°C° 0.1 mm 7 mps 693 mmHg 88%
    04:00 +6°C° 0.1 mm 7 mps 693 mmHg 87%
    05:00 +6°C° 0 mm 7 mps 692 mmHg 87%
    06:00 +6°C° 0 mm 7 mps 692 mmHg 86%
    07:00 +6°C° 0 mm 7 mps 692 mmHg 86%
    08:00 +8°C° 0 mm 7 mps 692 mmHg 81%
    09:00 +9°C° 0 mm 8 mps 692 mmHg 77%
    10:00 +9°C° 0 mm 8 mps 692 mmHg 72%
    11:00 +8°C° 0 mm 9 mps 691 mmHg 67%
    12:00 +10°C° 0 mm 9 mps 691 mmHg 62%
    13:00 +9°C° 0 mm 10 mps 691 mmHg 57%
    14:00 +8°C° 0 mm 9 mps 691 mmHg 57%
    15:00 +7°C° 0 mm 8 mps 691 mmHg 56%
    16:00 +8°C° 0 mm 6 mps 692 mmHg 56%
    17:00 +5°C° 0 mm 6 mps 692 mmHg 55%
    18:00 +5°C° 0 mm 5 mps 693 mmHg 55%
    19:00 +2°C° 0 mm 5 mps 693 mmHg 54%
    20:00 +2°C° 0 mm 5 mps 694 mmHg 53%
    21:00 +1°C° 0 mm 5 mps 695 mmHg 51%
    22:00 0°C° 0 mm 5 mps 696 mmHg 50%
    23:00 0°C° 0 mm 4 mps 697 mmHg 49%

    Tomorrow, 18 January, Thursday

    Time Temperature Precipitation Wind Pressure Humidity
    00:00 0°C° 0 mm 4 mps 697 mmHg 47%
    01:00 0°C° 0 mm 3 mps 698 mmHg 46%
    02:00 0°C° 0 mm 3 mps 698 mmHg 44%
    03:00 0°C° 0 mm 3 mps 699 mmHg 42%
    04:00 -1°C° 0 mm 3 mps 699 mmHg 39%
    05:00 -1°C° 0 mm 2 mps 700 mmHg 37%
    06:00 -1°C° 0 mm 2 mps 700 mmHg 35%
    07:00 -1°C° 0 mm 2 mps 701 mmHg 33%
    08:00 +2°C° 0 mm 2 mps 701 mmHg 32%
    09:00 +3°C° 0 mm 2 mps 702 mmHg 32%
    10:00 +5°C° 0 mm 2 mps 703 mmHg 31%
    11:00 +5°C° 0 mm 3 mps 703 mmHg 30%
    12:00 +7°C° 0 mm 3 mps 702 mmHg 29%
    13:00 +7°C° 0 mm 4 mps 702 mmHg 28%
    14:00 +6°C° 0 mm 4 mps 702 mmHg 31%
    15:00 +6°C° 0 mm 4 mps 702 mmHg 34%
    16:00 +5°C° 0 mm 5 mps 701 mmHg 37%
    17:00 +3°C° 0 mm 5 mps 701 mmHg 46%
    18:00 +2°C° 0 mm 6 mps 701 mmHg 54%
    19:00 +2°C° 0 mm 6 mps 700 mmHg 63%
    20:00 +2°C° 0 mm 6 mps 700 mmHg 69%
    21:00 +2°C° 0 mm 6 mps 700 mmHg 76%
    22:00 +3°C° 0 mm 6 mps 700 mmHg 83%
    23:00 +3°C° 0 mm 6 mps 700 mmHg 84%

    Day after tomorrow, 19 January, Friday

    Time Temperature Precipitation Wind Pressure Humidity
    00:00 +3°C° 0 mm 6 mps 699 mmHg 85%
    01:00 +3°C° 0 mm 6 mps 699 mmHg 86%
    02:00 +3°C° 0 mm 6 mps 699 mmHg 86%
    03:00 +3°C° 0 mm 6 mps 698 mmHg 87%
    04:00 +4°C° 0 mm 6 mps 698 mmHg 88%
    05:00 +4°C° 0 mm 6 mps 698 mmHg 88%
    06:00 +4°C° 0 mm 6 mps 698 mmHg 88%
    07:00 +4°C° 0 mm 6 mps 698 mmHg 88%
    08:00 +5°C° 0 mm 6 mps 698 mmHg 85%
    09:00 +5°C° 0 mm 6 mps 698 mmHg 82%
    10:00 +6°C° 0 mm 7 mps 698 mmHg 80%
    11:00 +6°C° 0 mm 7 mps 698 mmHg 78%
    12:00 +8°C° 0 mm 7 mps 697 mmHg 76%
    13:00 +8°C° 0 mm 7 mps 697 mmHg 74%
    14:00 +8°C° 0 mm 6 mps 697 mmHg 76%
    15:00 +7°C° 0 mm 6 mps 696 mmHg 78%
    16:00 +7°C° 0 mm 6 mps 696 mmHg 80%
    17:00 +7°C° 0 mm 5 mps 696 mmHg 82%
    18:00 +6°C° 0 mm 5 mps 696 mmHg 84%
    19:00 +6°C° 0 mm 5 mps 696 mmHg 86%
    20:00 +6°C° 0.1 mm 5 mps 695 mmHg 87%
    21:00 +6°C° 0.1 mm 5 mps 695 mmHg 87%
    22:00 +6°C° 0.1 mm 5 mps 695 mmHg 87%
    23:00 +6°C° 0.1 mm 5 mps 695 mmHg 87%

    20 January, Saturday

    Time Temperature Precipitation Wind Pressure Humidity
    00:00 +6°C° 0.1 mm 5 mps 695 mmHg 87%
    01:00 +6°C° 0.1 mm 5 mps 694 mmHg 87%
    02:00 +6°C° 0 mm 5 mps 694 mmHg 87%
    03:00 +5°C° 0 mm 5 mps 694 mmHg 86%
    04:00 +5°C° 0 mm 4 mps 693 mmHg 86%
    05:00 +4°C° 0 mm 4 mps 693 mmHg 85%
    06:00 +4°C° 0 mm 4 mps 693 mmHg 84%
    07:00 +3°C° 0 mm 4 mps 693 mmHg 83%
    08:00 +4°C° 0 mm 4 mps 693 mmHg 76%
    09:00 +5°C° 0 mm 4 mps 694 mmHg 69%
    10:00 +6°C° 0 mm 4 mps 694 mmHg 61%
    11:00 +6°C° 0.1 mm 5 mps 694 mmHg 58%
    12:00 +5°C° 0.1 mm 6 mps 693 mmHg 54%
    13:00 +7°C° 0.1 mm 6 mps 693 mmHg 51%
    14:00 +5°C° 0.3 mm 6 mps 693 mmHg 54%
    15:00 +5°C° 0.3 mm 5 mps 693 mmHg 58%
    16:00 +5°C° 0.3 mm 5 mps 694 mmHg 61%
    17:00 +3°C° 0.1 mm 4 mps 694 mmHg 65%
    18:00 +2°C° 0.1 mm 3 mps 694 mmHg 69%
    19:00 +2°C° 0.1 mm 2 mps 694 mmHg 73%
    20:00 +2°C° 0 mm 2 mps 694 mmHg 73%
    21:00 +2°C° 0 mm 2 mps 695 mmHg 74%
    22:00 +3°C° 0 mm 1 mps 695 mmHg 74%
    23:00 +3°C° 0 mm 1 mps 695 mmHg 73%

    21 January, Sunday

    Time Temperature Precipitation Wind Pressure Humidity
    00:00 +3°C° 0 mm 1 mps 694 mmHg 72%
    01:00 +3°C° 0 mm 1 mps 694 mmHg 71%
    02:00 +3°C° 0.3 mm 1 mps 693 mmHg 73%
    03:00 +3°C° 0.3 mm 1 mps 692 mmHg 74%
    04:00 +1°C° 0.3 mm 2 mps 692 mmHg 75%
    05:00 +1°C° 2.1 mm 2 mps 691 mmHg 80%
    06:00 0°C° 2.1 mm 3 mps 691 mmHg 85%
    07:00 -2°C° 2.1 mm 4 mps 690 mmHg 90%
    08:00 -2°C° 1.4 mm 4 mps 691 mmHg 91%
    09:00 -2°C° 1.4 mm 5 mps 691 mmHg 92%
    10:00 -3°C° 1.4 mm 6 mps 692 mmHg 92%
    11:00 -2°C° 0.3 mm 6 mps 693 mmHg 89%
    12:00 -2°C° 0.3 mm 7 mps 693 mmHg 86%
    13:00 -1°C° 0.3 mm 7 mps 694 mmHg 82%
    14:00 -1°C° 0.1 mm 7 mps 695 mmHg 81%
    15:00 -1°C° 0.1 mm 6 mps 696 mmHg 80%
    16:00 -1°C° 0.1 mm 6 mps 697 mmHg 79%
    17:00 -2°C° 0.1 mm 6 mps 697 mmHg 79%
    18:00 -2°C° 0.1 mm 5 mps 698 mmHg 80%
    19:00 -4°C° 0.1 mm 5 mps 699 mmHg 80%
    20:00 -4°C° 0 mm 5 mps 699 mmHg 80%
    21:00 -4°C° 0 mm 5 mps 700 mmHg 79%
    22:00 -5°C° 0 mm 5 mps 700 mmHg 78%
    23:00 -4°C° 0 mm 4 mps 701 mmHg 79%

    22 January, Monday

    Time Temperature Precipitation Wind Pressure Humidity
    00:00 -4°C° 0 mm 4 mps 701 mmHg 79%
    01:00 -5°C° 0 mm 3 mps 701 mmHg 79%
    02:00 -5°C° 0 mm 3 mps 701 mmHg 78%
    03:00 -5°C° 0 mm 3 mps 701 mmHg 77%
    04:00 -4°C° 0 mm 2 mps 701 mmHg 77%
    05:00 -5°C° 0 mm 2 mps 701 mmHg 75%
    06:00 -5°C° 0 mm 2 mps 701 mmHg 74%
    07:00 -3°C° 0 mm 1 mps 701 mmHg 73%
    08:00 -1°C° 0 mm 1 mps 701 mmHg 73%
    09:00 0°C° 0 mm 1 mps 701 mmHg 72%
    10:00 +2°C° 0 mm 1 mps 702 mmHg 72%
    11:00 +3°C° 0 mm 1 mps 702 mmHg 72%
    12:00 +4°C° 0 mm 1 mps 701 mmHg 73%
    13:00 +4°C° 0 mm 1 mps 701 mmHg 73%
    14:00 +4°C° 0 mm 1 mps 701 mmHg 74%
    15:00 +4°C° 0 mm 1 mps 701 mmHg 74%
    16:00 +4°C° 0 mm 1 mps 701 mmHg 75%
    17:00 +3°C° 0 mm 1 mps 701 mmHg 74%
    18:00 +2°C° 0 mm 1 mps 701 mmHg 74%
    19:00 +1°C° 0 mm 1 mps 701 mmHg 74%
    20:00 +1°C° 0 mm 1 mps 701 mmHg 73%
    21:00 +1°C° 0 mm 1 mps 701 mmHg 72%
    22:00 +1°C° 0 mm 1 mps 701 mmHg 71%
    23:00 +1°C° 0 mm 1 mps 701 mmHg 70%
    Show more